{"data":{"norad_id":64744,"epoch":"2026-09-20T12:45:52.756704Z","epoch_age_seconds":125106,"freshness":"FRESH","line1":"1 64744U 25144W   26263.53186061  .00027359  00000+0  81746-3 0  9994","line2":"2 64744  53.1607 353.8503 0001098  71.5956 288.5166 15.34417194 69579","mean_motion":15.34417194,"eccentricity":0.0001098,"inclination_deg":53.1607,"raan_deg":353.8503,"arg_perigee_deg":71.5956,"mean_anomaly_deg":288.5166,"bstar":0.00081746,"rev_number":6957,"period_min":93.846706464891,"perigee_km":461.90101784566,"apogee_km":463.40325514003,"semimajor_km":6840.7891364928,"source":"CELESTRAK","updated_at":"2026-09-21T09:00:35.413136Z"}}